• Em Portugal
  • Lista de países
  • Para 7 dias
  • Temperatura da água
  • Mapas de satélite
  • Mapa do tempo
  • Widgets de tempo
  • user-avatar
    Iniciar Sessão

    Previsão horária em Algiers

    Hoje, 21 Setembro, Sexta-feira

    Tempo Temperatura Precipitação Vento Pressão Humidade
    00:00 +22°C° 0 mm 0 m/s 750 mmHg 83%
    01:00 +22°C° 0 mm 0 m/s 750 mmHg 85%
    02:00 +22°C° 0 mm 0 m/s 750 mmHg 87%
    03:00 +21°C° 0 mm 0 m/s 750 mmHg 89%
    04:00 +21°C° 0 mm 0 m/s 750 mmHg 89%
    05:00 +21°C° 0 mm 0 m/s 750 mmHg 89%
    06:00 +21°C° 0 mm 0 m/s 750 mmHg 88%
    07:00 +23°C° 0 mm 0 m/s 750 mmHg 80%
    08:00 +26°C° 0 mm 1 m/s 750 mmHg 71%
    09:00 +27°C° 0 mm 1 m/s 750 mmHg 62%
    10:00 +28°C° 0 mm 1 m/s 750 mmHg 57%
    11:00 +29°C° 0 mm 2 m/s 751 mmHg 52%
    12:00 +30°C° 0 mm 3 m/s 751 mmHg 47%
    13:00 +30°C° 0 mm 3 m/s 750 mmHg 47%
    14:00 +30°C° 0 mm 3 m/s 750 mmHg 48%
    15:00 +30°C° 0 mm 3 m/s 750 mmHg 49%
    16:00 +29°C° 0 mm 3 m/s 750 mmHg 54%
    17:00 +28°C° 0 mm 2 m/s 750 mmHg 59%
    18:00 +27°C° 0 mm 2 m/s 750 mmHg 64%
    19:00 +26°C° 0 mm 2 m/s 751 mmHg 68%
    20:00 +26°C° 0 mm 2 m/s 751 mmHg 71%
    21:00 +25°C° 0 mm 1 m/s 752 mmHg 75%
    22:00 +25°C° 0 mm 1 m/s 752 mmHg 76%
    23:00 +24°C° 0 mm 1 m/s 752 mmHg 77%

    Amanhã, 22 Setembro, Sábado

    Tempo Temperatura Precipitação Vento Pressão Humidade
    00:00 +24°C° 0 mm 1 m/s 752 mmHg 78%
    01:00 +24°C° 0 mm 1 m/s 752 mmHg 77%
    02:00 +24°C° 0 mm 1 m/s 752 mmHg 76%
    03:00 +23°C° 0 mm 1 m/s 752 mmHg 75%
    04:00 +23°C° 0 mm 2 m/s 752 mmHg 74%
    05:00 +23°C° 0 mm 2 m/s 752 mmHg 73%
    06:00 +23°C° 0 mm 2 m/s 753 mmHg 72%
    07:00 +25°C° 0 mm 2 m/s 753 mmHg 63%
    08:00 +27°C° 0 mm 2 m/s 753 mmHg 54%
    09:00 +29°C° 0 mm 2 m/s 753 mmHg 45%
    10:00 +30°C° 0 mm 2 m/s 753 mmHg 41%
    11:00 +31°C° 0 mm 3 m/s 753 mmHg 37%
    12:00 +33°C° 0 mm 3 m/s 753 mmHg 33%
    13:00 +33°C° 0 mm 4 m/s 753 mmHg 35%
    14:00 +33°C° 0 mm 4 m/s 753 mmHg 36%
    15:00 +33°C° 0 mm 4 m/s 753 mmHg 38%
    16:00 +32°C° 0 mm 4 m/s 753 mmHg 45%
    17:00 +29°C° 0 mm 4 m/s 753 mmHg 52%
    18:00 +28°C° 0 mm 3 m/s 753 mmHg 58%
    19:00 +27°C° 0 mm 3 m/s 753 mmHg 62%
    20:00 +27°C° 0 mm 3 m/s 753 mmHg 65%
    21:00 +26°C° 0 mm 2 m/s 754 mmHg 68%
    22:00 +26°C° 0 mm 2 m/s 754 mmHg 67%
    23:00 +26°C° 0 mm 2 m/s 754 mmHg 67%

    Depois de amanhã, 23 Setembro, Domingo

    Tempo Temperatura Precipitação Vento Pressão Humidade
    00:00 +26°C° 0 mm 2 m/s 753 mmHg 66%
    01:00 +26°C° 0 mm 2 m/s 753 mmHg 65%
    02:00 +25°C° 0 mm 2 m/s 753 mmHg 63%
    03:00 +25°C° 0 mm 2 m/s 753 mmHg 62%
    04:00 +25°C° 0 mm 2 m/s 753 mmHg 61%
    05:00 +25°C° 0 mm 2 m/s 753 mmHg 60%
    06:00 +25°C° 0 mm 2 m/s 753 mmHg 59%
    07:00 +27°C° 0 mm 2 m/s 753 mmHg 52%
    08:00 +29°C° 0 mm 2 m/s 754 mmHg 44%
    09:00 +31°C° 0 mm 2 m/s 754 mmHg 36%
    10:00 +33°C° 0 mm 3 m/s 754 mmHg 34%
    11:00 +34°C° 0 mm 3 m/s 754 mmHg 31%
    12:00 +35°C° 0 mm 4 m/s 753 mmHg 28%
    13:00 +35°C° 0 mm 4 m/s 753 mmHg 29%
    14:00 +35°C° 0 mm 5 m/s 753 mmHg 30%
    15:00 +35°C° 0 mm 5 m/s 752 mmHg 31%
    16:00 +33°C° 0 mm 5 m/s 752 mmHg 36%
    17:00 +32°C° 0 mm 4 m/s 752 mmHg 41%
    18:00 +29°C° 0 mm 4 m/s 752 mmHg 46%
    19:00 +29°C° 0 mm 4 m/s 752 mmHg 49%
    20:00 +28°C° 0 mm 3 m/s 753 mmHg 52%
    21:00 +28°C° 0 mm 3 m/s 753 mmHg 54%
    22:00 +28°C° 0 mm 3 m/s 753 mmHg 54%
    23:00 +27°C° 0 mm 2 m/s 753 mmHg 53%

    24 Setembro, Segunda-feira

    Tempo Temperatura Precipitação Vento Pressão Humidade
    00:00 +27°C° 0 mm 2 m/s 752 mmHg 52%
    01:00 +27°C° 0 mm 2 m/s 752 mmHg 52%
    02:00 +27°C° 0 mm 2 m/s 752 mmHg 51%
    03:00 +27°C° 0 mm 2 m/s 751 mmHg 50%
    04:00 +27°C° 0 mm 2 m/s 751 mmHg 50%
    05:00 +27°C° 0 mm 2 m/s 751 mmHg 50%
    06:00 +26°C° 0 mm 2 m/s 751 mmHg 49%
    07:00 +28°C° 0 mm 2 m/s 752 mmHg 44%
    08:00 +30°C° 0 mm 2 m/s 752 mmHg 39%
    09:00 +33°C° 0 mm 3 m/s 752 mmHg 33%
    10:00 +34°C° 0 mm 3 m/s 752 mmHg 31%
    11:00 +35°C° 0 mm 4 m/s 752 mmHg 29%
    12:00 +36°C° 0 mm 5 m/s 752 mmHg 27%
    13:00 +36°C° 0 mm 5 m/s 751 mmHg 28%
    14:00 +36°C° 0 mm 6 m/s 751 mmHg 29%
    15:00 +35°C° 0 mm 6 m/s 750 mmHg 30%
    16:00 +34°C° 0 mm 6 m/s 750 mmHg 35%
    17:00 +32°C° 0 mm 6 m/s 750 mmHg 40%
    18:00 +30°C° 0 mm 5 m/s 751 mmHg 45%
    19:00 +29°C° 0 mm 5 m/s 751 mmHg 48%
    20:00 +29°C° 0 mm 5 m/s 751 mmHg 50%
    21:00 +28°C° 0 mm 5 m/s 752 mmHg 53%
    22:00 +28°C° 0 mm 5 m/s 751 mmHg 55%
    23:00 +27°C° 0 mm 4 m/s 751 mmHg 57%

    25 Setembro, Terça-feira

    Tempo Temperatura Precipitação Vento Pressão Humidade
    00:00 +27°C° 0 mm 4 m/s 751 mmHg 58%
    01:00 +26°C° 0 mm 5 m/s 751 mmHg 60%
    02:00 +26°C° 0 mm 5 m/s 751 mmHg 61%
    03:00 +26°C° 0 mm 5 m/s 751 mmHg 62%
    04:00 +25°C° 0 mm 5 m/s 751 mmHg 64%
    05:00 +25°C° 0 mm 5 m/s 751 mmHg 65%
    06:00 +25°C° 0 mm 5 m/s 751 mmHg 67%
    07:00 +26°C° 0 mm 5 m/s 751 mmHg 61%
    08:00 +28°C° 0 mm 5 m/s 752 mmHg 55%
    09:00 +30°C° 0 mm 5 m/s 752 mmHg 50%
    10:00 +32°C° 0 mm 6 m/s 752 mmHg 47%
    11:00 +33°C° 0 mm 6 m/s 752 mmHg 43%
    12:00 +34°C° 0 mm 6 m/s 752 mmHg 40%
    13:00 +33°C° 0 mm 6 m/s 752 mmHg 42%
    14:00 +33°C° 0 mm 6 m/s 751 mmHg 44%
    15:00 +33°C° 0 mm 7 m/s 751 mmHg 46%
    16:00 +30°C° 0 mm 6 m/s 751 mmHg 52%
    17:00 +29°C° 0 mm 6 m/s 752 mmHg 59%
    18:00 +27°C° 0 mm 5 m/s 752 mmHg 65%
    19:00 +26°C° 0 mm 5 m/s 752 mmHg 68%
    20:00 +26°C° 0 mm 4 m/s 753 mmHg 71%
    21:00 +25°C° 0 mm 3 m/s 753 mmHg 74%
    22:00 +25°C° 0 mm 3 m/s 753 mmHg 76%
    23:00 +24°C° 0 mm 3 m/s 753 mmHg 78%

    26 Setembro, Quarta-feira

    Tempo Temperatura Precipitação Vento Pressão Humidade
    00:00 +24°C° 0 mm 3 m/s 753 mmHg 79%
    01:00 +24°C° 0 mm 2 m/s 753 mmHg 81%
    02:00 +23°C° 0 mm 2 m/s 753 mmHg 82%
    03:00 +23°C° 0 mm 2 m/s 753 mmHg 83%
    04:00 +23°C° 0 mm 2 m/s 753 mmHg 84%
    05:00 +23°C° 0 mm 2 m/s 753 mmHg 84%
    06:00 +22°C° 0 mm 3 m/s 754 mmHg 85%
    07:00 +24°C° 0 mm 3 m/s 754 mmHg 77%
    08:00 +26°C° 0 mm 4 m/s 754 mmHg 69%
    09:00 +27°C° 0 mm 4 m/s 754 mmHg 60%
    10:00 +28°C° 0 mm 5 m/s 754 mmHg 56%
    11:00 +30°C° 0 mm 5 m/s 754 mmHg 51%
    12:00 +32°C° 0 mm 6 m/s 754 mmHg 46%
    13:00 +32°C° 0 mm 7 m/s 754 mmHg 45%
    14:00 +32°C° 0 mm 7 m/s 753 mmHg 45%
    15:00 +33°C° 0 mm 8 m/s 753 mmHg 44%
    16:00 +32°C° 0 mm 8 m/s 753 mmHg 49%
    17:00 +29°C° 0 mm 8 m/s 754 mmHg 54%
    18:00 +28°C° 0 mm 8 m/s 754 mmHg 59%
    19:00 +28°C° 0 mm 7 m/s 754 mmHg 62%
    20:00 +27°C° 0 mm 7 m/s 755 mmHg 64%
    21:00 +27°C° 0 mm 7 m/s 755 mmHg 66%
    22:00 +27°C° 0 mm 6 m/s 755 mmHg 66%
    23:00 +26°C° 0 mm 6 m/s 755 mmHg 65%
    Mostrar mais